カタログに戻る

STARLINK-36592

運用中通信VLEO
NORAD 68007·PAYLOAD·🇺🇸 United States

打ち上げ Feb 27, 2026 から Vandenberg Space Force Base

Loading…

次のパス (今後24時間)

TLE

最新Source: CelesTrak SupGP

元期: Sep 14, 2026, 21:34 UTC

1 68007C 26039X   26257.89909722  .00050421  00000+0  18262-2 0  2578
2 68007  43.0030  60.4334 0001767 273.1133 308.8434 15.27553269    10

AllMySatでSTARLINK-36592をリアルタイム追跡

Download on the App Store